Regional Weather Roundup
Issued by NWS Green Bay, WI

Home | Current Version | Previous Version | Text Only | Print | Product List | Glossary On
Versions: 1 2 3 4 5 6 7 8 9 10 11 12 13 14 15 16 17 18 19 20 21 22 23 24 25 26 27 28 29 30 31 32 33 34 35 36 37 38 39 40 41 42 43 44 45 46 47 48 49 50
000
ASUS43 KGRB 262300
RWRGRB

NORTH-CENTRAL AND NORTHEAST WISCONSIN REGIONAL WEATHER ROUNDUP
NATIONAL WEATHER SERVICE GREEN BAY WI
600 PM CDT THU MAY 26 2016

WIZ005-009-010>012-018-019-270000-
NORTH CENTRAL WISCONSIN

CITY           SKY/WX    TMP DP  RH WIND       PRES   REMARKS
IRONWOOD       SUNNY     72  63  73 NW8       29.75F
MANITOWISH WTR NOT AVBL
ARBOR VITAE    NOT AVBL
EAGLE RIVER    NOT AVBL
LAND O LAKES   NOT AVBL
RHINELANDER    PTSUNNY   73  59  61 CALM      29.79F
PHILLIPS       MOSUNNY   75  58  54 SW7       29.77F
ANTIGO         NOT AVBL
TOMAHAWK       NOT AVBL
MERRILL        MOSUNNY   75  57  53 W9        29.80F
$$

WIZ013-073-270000-
NORTHEAST WISCONSIN

CITY           SKY/WX    TMP DP  RH WIND       PRES   REMARKS
IRON MOUNTAIN  MOSUNNY   73  59  61 CALM      29.78F
MARINETTE      SUNNY     70  63  78 E9        29.80F
$$

WIZ017-030-035>037-045-270000-
CENTRAL WISCONSIN

CITY           SKY/WX    TMP DP  RH WIND       PRES   REMARKS
MEDFORD        NOT AVBL
WAUSAU         MOSUNNY   77  56  48 W8        29.78F
MOSINEE        MOSUNNY   75  57  53 W9        29.82F
MARSHFIELD     MOSUNNY   78  57  48 W8        29.79F
WISC RAPIDS    SUNNY     80  54  40 W8        29.80F
STEVENS POINT  NOT AVBL
WAUPACA        MOSUNNY   82  55  38 W6        29.79F
SHAWANO        MOSUNNY   79  58  48 NW5       29.79F
CLINTONVILLE   NOT AVBL
WAUTOMA        MOSUNNY   81  58  45 SW9       29.80F
$$

WIZ038-039-048-051-270000-
FOX VALLEY

CITY           SKY/WX    TMP DP  RH WIND       PRES   REMARKS
NWS GREEN BAY  SUNNY     81  58  45 W12       29.79F
APPLETON       MOSUNNY   79  54  41 W8        29.79F
OSHKOSH        SUNNY     80  57  45 W10       29.79F
FOND DU LAC    SUNNY     81  58  45 W8        29.79F
$$

WIZ022-050-052-270000-
EAST CENTRAL WISCONSIN

CITY           SKY/WX    TMP DP  RH WIND       PRES   REMARKS
EPHRAIM        NOT AVBL
STURGEON BAY   NOT AVBL
MANITOWOC      NOT AVBL
SHEBOYGAN      SUNNY     81  58  45 NW8       29.79F
$$

LMZ563-521-522-541>543-270000-
LAKESHORE

STATION/POSITION TIME  TEMP    WIND        PRES    VSBY  WAVE
                       AIR SEA DIR/SP/G                  HT/PER
                 (UTC) (F)     (DEG/KT/KT) (MB)    (MI)  (FT/S)
SHEBOYGAN LKSHOR 2200   70     160/ 10/ 14 1009.8F
KEWAUNEE LKSHORE 2200          250/ 12/ 16 1008.8F
ALGOMA MARINA    2217          300/ 10/ 18   N/A
NORTHPORT PIER   2200   65     310/ 10/ 15 1009.8F
N MID LAKE BUOY  2150   49 45  220/ 14/ 16 1009.5R         2/ 3
SISTER BAY LKSHO 2220   64     360/ 10/ 11   N/A
CHAMBERS ISLAND  2240   64      30/  9/ 11 1009.5F
MENOMINEE LKSHOR 2200           50/  7/  8 1008.7S
$$




USA.gov is the U.S. government's official web portal to all federal, state and local government web resources and services.